This is the latest recevied weather packets stored in our database for station/object SQ9RHX-13. If no packets are shown the sender has not sent any weather packets the latest 10 day(s).
| Time | Temp. | Humidity | Pressure | Rain* | Wind** | Luminosity | Snow |
|---|---|---|---|---|---|---|---|
| 1777385703 | 15° C | 24% | 1027.7 hPa | 0 mm | - | 345 W/m² | - |
| 1777385402 | 15° C | 23% | 1027.9 hPa | 0 mm | - | 358 W/m² | - |
| 1777385103 | 15° C | 23% | 1028 hPa | 0 mm | - | 370 W/m² | - |
| 1777384803 | 15° C | 23% | 1027.8 hPa | 0 mm | - | 385 W/m² | - |
| 1777384503 | 15° C | 24% | 1028 hPa | 0 mm | - | 399 W/m² | - |
| 1777384206 | 15° C | 25% | 1027.9 hPa | 0 mm | - | 411 W/m² | - |
| 1777383904 | 15° C | 25% | 1028 hPa | 0 mm | - | 424 W/m² | - |
| 1777383603 | 15° C | 24% | 1028.1 hPa | 0 mm | - | 437 W/m² | - |
| 1777383304 | 14.44° C | 25% | 1028.1 hPa | 0 mm | - | 450 W/m² | - |
| 1777383003 | 15° C | 23% | 1028.2 hPa | 0 mm | - | 445 W/m² | - |
| 1777382702 | 15.56° C | 24% | 1028.2 hPa | 0 mm | - | 438 W/m² | - |
| 1777382403 | 15.56° C | 23% | 1028.3 hPa | 0 mm | - | 457 W/m² | - |
| 1777382105 | 15° C | 24% | 1028.1 hPa | 0 mm | - | 429 W/m² | - |
| 1777381803 | 15° C | 23% | 1028.4 hPa | 0 mm | - | 465 W/m² | - |
| 1777381503 | 15° C | 24% | 1028.3 hPa | 0 mm | - | 511 W/m² | - |
| 1777381203 | 15° C | 24% | 1028.3 hPa | 0 mm | - | 522 W/m² | - |
| 1777380905 | 15° C | 26% | 1028.4 hPa | 0 mm | - | 535 W/m² | - |
| 1777380603 | 15° C | 24% | 1028.4 hPa | 0 mm | - | 508 W/m² | - |
| 1777380304 | 15.56° C | 25% | 1028.2 hPa | 0 mm | - | 537 W/m² | - |
| 1777380002 | 15.56° C | 24% | 1028.4 hPa | 0 mm | - | 565 W/m² | - |
| 1777379705 | 14.44° C | 26% | 1028.3 hPa | 0 mm | - | 571 W/m² | - |
| 1777379405 | 14.44° C | 27% | 1028.6 hPa | 0 mm | - | 578 W/m² | - |
| 1777379104 | 15° C | 24% | 1028.5 hPa | 0 mm | - | 579 W/m² | - |
| 1777378804 | 15° C | 25% | 1028.5 hPa | 0 mm | - | 589 W/m² | - |
| 1777378503 | 15° C | 26% | 1028.5 hPa | 0 mm | - | 594 W/m² | - |
* Rain latest hour (hover to see other rain measurements)
** Current wind speed in m/s (hover to see current wind gust speed)